Home   Weather   Karaganda   Past weeks

Flag for Kazakhstan Past Weather in Karaganda, Kazakhstan — Yesterday and Last 2 Weeks

Now
43 °F

Passing clouds.


Feels Like: 39 °F
Forecast: 30 / 57 °F
Wind: 6 mph from Northwest

Location: Karaganda

Current Time: May 1, 2017 at 12:36:35 pm

Latest Report: May 1, 2017 at 12:00 pm


Visibility: N/A

Pressure: 30.45 "Hg (28.45 "Hg at 555m altitude)

Humidity: 36%

Dew Point: 18 °F

Location of KaragandaLocation

Past Weather in Karaganda — Graph

°F

Karaganda Temperature Yesterday

Maximum temperature yesterday: 50 °F (at 12:30 pm)
Minimum temperature yesterday: 34 °F (at 10:00 pm)
Average temperature yesterday: 43 °F

High & Low Weather Summary for the Past Weeks

 TemperatureHumidityPressure
High79 °F (Apr 26, 3:30 pm)94% (Apr 22, 12:00 pm)30.45 "Hg (Apr 22, 12:00 pm)
Low27 °F (Apr 23, 5:00 am)13% (Apr 25, 3:30 pm)29.68 "Hg (Apr 22, 3:30 am)
Average50 °F61%30.13 "Hg
* Reported Apr 16 11:00 am — May 1 11:30 am, Karaganda, Weather by CustomWeather, © 2017

Note: Actual official high and low records may vary slightly from our data, if they occured in-between our weather recording intervals... More about our weather records

Advertising

Karaganda Weather History for the Previous 24 Hours

Scroll right to see more
 ConditionsComfort  
Time TempWeatherWind HumidityBarometerVisibility
11:30 am
Mon, May 1
43 °FPassing clouds.8 mph36%30.45 "HgN/A
11:00 am41 °FPassing clouds.6 mph42%30.45 "HgN/A
10:30 am41 °FPassing clouds.8 mph42%30.45 "HgN/A
10:00 am39 °FScattered clouds.8 mph42%30.45 "HgN/A
9:30 am37 °FPassing clouds.3 mph56%30.45 "HgN/A
9:00 am36 °FPassing clouds.3 mph65%30.45 "HgN/A
8:30 am34 °FSunny.1 mph70%30.45 "Hg10 mi
8:00 am32 °FSunny.1 mph75%30.45 "Hg10 mi
7:30 am32 °FSunny.1 mph75%30.45 "Hg10 mi
7:00 am30 °FSunny.No wind80%30.45 "Hg10 mi
6:30 am28 °FClear.1 mph80%30.42 "Hg10 mi
6:00 am27 °FClear.1 mph86%30.42 "Hg10 mi
5:30 am27 °FClear.1 mph86%30.42 "Hg10 mi
5:00 am27 °FClear.No wind86%30.42 "Hg10 mi
4:30 am27 °FClear.1 mph93%30.42 "Hg10 mi
4:00 am28 °FClear.1 mph86%30.42 "Hg10 mi
3:30 am28 °FClear.1 mph86%30.42 "Hg10 mi
3:00 am28 °FClear.3 mph86%30.39 "Hg10 mi
2:30 am28 °FClear.3 mph80%30.39 "Hg10 mi
2:00 am28 °FClear.6 mph86%30.39 "Hg10 mi
1:30 am28 °FClear.6 mph86%30.39 "Hg10 mi
1:00 am30 °FClear.8 mph80%30.39 "Hg10 mi
12:30 am30 °FClear.3 mph86%30.39 "Hg10 mi
12:00 am34 °FClear.No wind75%30.39 "Hg10 mi
11:30 pm
Sun, Apr 30
34 °FClear.1 mph75%30.39 "Hg10 mi
11:00 pm34 °FClear.1 mph75%30.36 "Hg10 mi
10:30 pm34 °FClear.6 mph75%30.36 "Hg10 mi
10:00 pm34 °FClear.6 mph81%30.36 "Hg10 mi
9:30 pm36 °FClear.8 mph70%30.36 "Hg10 mi
9:00 pm37 °FSunny.6 mph70%30.33 "Hg10 mi
8:30 pm39 °FPassing clouds.8 mph70%30.33 "HgN/A
8:00 pm41 °FScattered clouds.8 mph70%30.33 "HgN/A
7:30 pm43 °FScattered clouds.13 mph66%30.30 "HgN/A
7:00 pm43 °FPartly sunny.15 mph71%30.30 "HgN/A
6:30 pm45 °FPartly sunny.15 mph71%30.27 "HgN/A
6:00 pm45 °FPartly sunny.10 mph76%30.27 "HgN/A
5:30 pm45 °FPartly sunny.13 mph81%30.27 "HgN/A
5:00 pm43 °FSprinkles. More clouds than sun.8 mph87%30.24 "HgN/A
4:30 pm46 °FBroken clouds.10 mph82%30.21 "HgN/A
4:00 pm45 °FScattered clouds.10 mph81%30.21 "HgN/A
3:30 pm45 °FPartly sunny.10 mph81%30.21 "HgN/A
3:00 pm45 °FOvercast.3 mph76%30.24 "HgN/A
2:30 pm43 °FSprinkles. More clouds than sun.10 mph87%30.21 "HgN/A
2:00 pm45 °FSprinkles. More clouds than sun.13 mph81%30.21 "HgN/A
1:30 pm46 °FSprinkles. More clouds than sun.13 mph82%30.21 "Hg4 mi
1:00 pm46 °FSprinkles. More clouds than sun.10 mph87%30.18 "Hg3 mi
12:30 pm50 °FSprinkles. More clouds than sun.22 mph82%30.15 "HgN/A
12:00 pm48 °FMostly cloudy.22 mph82%30.18 "HgN/A
Weather by CustomWeather, © 2017

See weather overviewHow to use our weather pages